RYR3874 EGKK-LFPG

Flight info

Callsign RYR3874
Flight time N/A
Altitude 23000
Route BOGNA DCT HARDY M605 XIDIL UM605 BIBAX
Aircraft B738/M-SDE2E3FGHIRWXY/LB1

Departure

Time 2026-04-16 22:33
Airport London Gatwick Airport (EGKK)

Arrival

Time N/A
Airport Charles de Gaulle International Airport (LFPG)
Time Latitude Longitude Altitude Speed Heading
2026-04-16 21:40 51.15776 -0.16936 194 ft 0 kts 68°
2026-04-16 22:21 51.15777 -0.16934 194 ft 3 kts 68°
2026-04-16 22:21 51.15782 -0.16915 194 ft 0 kts 68°
2026-04-16 22:21 51.15782 -0.16914 194 ft 0 kts 68°
2026-04-16 22:22 51.15788 -0.16913 194 ft 1 kts 333°
2026-04-16 22:22 51.15785 -0.16958 194 ft 7 kts 262°
2026-04-16 22:22 51.15750 -0.17037 194 ft 9 kts 205°
2026-04-16 22:23 51.15717 -0.17046 193 ft 0 kts 179°
2026-04-16 22:24 51.15717 -0.17045 193 ft 0 kts 180°
2026-04-16 22:25 51.15716 -0.17045 193 ft 0 kts 180°
2026-04-16 22:25 51.15696 -0.17043 193 ft 6 kts 173°
2026-04-16 22:25 51.15647 -0.17069 192 ft 9 kts 229°
2026-04-16 22:26 51.15622 -0.17163 193 ft 9 kts 256°
2026-04-16 22:26 51.15602 -0.17277 192 ft 11 kts 241°
2026-04-16 22:26 51.15551 -0.17310 192 ft 8 kts 179°
2026-04-16 22:26 51.15477 -0.17287 189 ft 13 kts 167°
2026-04-16 22:27 51.15419 -0.17267 187 ft 8 kts 171°
2026-04-16 22:27 51.15347 -0.17235 183 ft 5 kts 144°
2026-04-16 22:27 51.15330 -0.17154 181 ft 9 kts 87°
2026-04-16 22:27 51.15344 -0.17037 182 ft 11 kts 80°
2026-04-16 22:28 51.15356 -0.16948 183 ft 7 kts 79°
2026-04-16 22:28 51.15360 -0.16925 183 ft 0 kts 79°
2026-04-16 22:28 51.15361 -0.16915 183 ft 5 kts 79°
2026-04-16 22:28 51.15359 -0.16842 185 ft 3 kts 120°
2026-04-16 22:29 51.15340 -0.16812 185 ft 4 kts 149°
2026-04-16 22:29 51.15309 -0.16800 186 ft 5 kts 177°
2026-04-16 22:29 51.15289 -0.16799 186 ft 0 kts 176°
2026-04-16 22:30 51.15289 -0.16800 186 ft 0 kts 175°
2026-04-16 22:31 51.15288 -0.16799 186 ft 1 kts 177°
2026-04-16 22:31 51.15247 -0.16797 186 ft 9 kts 177°
2026-04-16 22:32 51.15179 -0.16792 186 ft 8 kts 180°
2026-04-16 22:32 51.15121 -0.16842 186 ft 10 kts 238°
2026-04-16 22:32 51.15110 -0.16882 186 ft 0 kts 252°
2026-04-16 22:32 51.15108 -0.16895 186 ft 0 kts 254°
2026-04-16 22:33 51.15105 -0.16909 185 ft 8 kts 255°
2026-04-16 22:33 51.14991 -0.17683 195 ft 134 kts 255°
2026-04-16 22:33 51.14692 -0.19655 857 ft 192 kts 254°
2026-04-16 22:34 51.14370 -0.22117 1844 ft 232 kts 257°
2026-04-16 22:34 51.14070 -0.24960 2928 ft 255 kts 258°
2026-04-16 22:34 51.13789 -0.27939 4367 ft 257 kts 259°
2026-04-16 22:34 51.13559 -0.30954 5487 ft 266 kts 264°
2026-04-16 22:35 51.12996 -0.33980 6686 ft 262 kts 231°
2026-04-16 22:35 51.12226 -0.35340 10313 ft 144 kts 229°
2026-04-16 22:35 51.11527 -0.36789 10089 ft 215 kts 231°
2026-04-16 22:35 51.10531 -0.38905 10744 ft 238 kts 233°
2026-04-16 22:36 51.09536 -0.41166 11982 ft 235 kts 234°
2026-04-16 22:36 51.08598 -0.43455 13188 ft 232 kts 236°
2026-04-16 22:36 51.07874 -0.45469 14798 ft 203 kts 239°
2026-04-16 22:36 51.07221 -0.47591 15631 ft 212 kts 244°